Weather in Oryavchik

Ukraine / Lviv District     48°58′06″N   23°15′42″E
temp.,
°C
wind,
m/s
gust,
m/s
humid.,
%
clouds,
%
prec.,
mm/h
press.,
hPa
HPBL,
m
27 october, wed
wed2700:00+1ssw217198 0.0 102714
03:00+1ssw2169100 0.0 102714
06:000ssw11710 0.0 102710
09:00+4ssw115897 0.0 102834
12:00+9w115370 0.0 1027349
15:00+11w225035 0.0 10251059
18:00+6wsw117294 0.0 102610
21:00+4ssw1181100 0.0 102810
28 october, thu
thu2800:00+3ssw218316 0.0 102913
03:00+3ssw218356 0.0 102913
06:00+3ssw218190 0.0 102815
09:00+3ssw117892 0.0 102920
12:00+11ssw11518 0.0 1027292
15:00+14ssw11465 0.0 1025586
18:00+8ssw006873 0.0 102510
21:00+6se117788 0.0 102710
29 october, fri
fri2900:00+6sse117749 0.0 102711
03:00+5sse22775 0.0 102613
06:00+5sse227591 0.0 102615
09:00+6s2271100 0.0 102620
12:00+14s234647 0.0 1023291
15:00+16ssw234112 0.0 1022628
18:00+10ssw11655 0.0 102211
21:00+7s22755 0.0 102329
30 october, sat
sat3000:00+6s33740 0.0 102442
03:00+6s33745 0.0 102454
06:00+5s34775 0.0 102457
09:00+5s34784 0.0 102469
12:00+12s37515 0.0 1023498
15:00+14ssw46445 0.0 1022647
18:00+9s226814 0.0 102319
21:00+6s23785 0.0 102541
31 october, sun
sun3100:00+5s34812 0.0 102558
03:00+5s35810 0.0 102369
05:00+4s33825 0.0 102248
08:00+4s35830 0.0 102187
11:00+12s4115289 0.0 1018643
14:00+13ssw51148100 0.0 1016815
17:00+8s39689 0.0 1017289
20:00+6s398193 0.0 1018205